DateTimeUTC,F1_A11,F1_S11,BsB_S11,BsG_S11,BsR_S11,BbsB_S11,BbsG_S11,BbsR_S11,BaB_A11,BaG_A11,BaR_A11,Tu_S11,T_S11,Uu_S11,U_S11,P_S11,T1_A11
2021-10-13T18:00:00Z,00000200,21000000,,,,,,,0000.32,0000.28,-000.05,16.6,24.1,,00.0,0668.9,30.9
2021-10-13T18:01:00Z,00000200,21000000,,,,,,,0000.00,-000.21,0000.07,16.6,24.1,,00.0,0668.9,30.9
2021-10-13T18:02:00Z,00000200,21000000,,,,,,,-000.62,-000.16,-000.03,16.6,24.1,,00.0,0668.9,30.9
2021-10-13T18:03:00Z,00000200,61000000,,,,,,,0000.30,-000.07,-000.35,16.6,24.2,,00.0,0668.9,31.0
2021-10-13T18:04:00Z,00000200,41000000,0003.39,0002.36,0001.18,0000.14,0000.40,0000.67,0000.78,0000.73,0000.46,17.0,24.0,,00.0,0669.7,31.0
2021-10-13T18:05:00Z,00000200,01000000,0003.73,0002.38,0001.14,0000.62,0000.45,0000.60,0000.08,0000.33,0000.64,17.1,24.0,,00.0,0669.8,31.0
2021-10-13T18:06:00Z,00000200,01000000,0003.01,0002.29,0001.03,0000.52,0000.36,0000.63,0000.65,0000.43,0000.23,17.2,24.0,,00.0,0669.7,31.0
2021-10-13T18:07:00Z,00000200,01000000,0002.74,0001.96,0001.17,0000.60,0000.15,0000.63,0000.82,0000.38,0000.22,17.2,24.0,,00.0,0669.7,31.0
2021-10-13T18:08:00Z,00000200,01000000,0003.91,0002.23,0001.48,0000.83,0000.39,0000.58,0000.06,0000.50,0000.19,17.1,24.0,,00.0,0669.7,30.9
2021-10-13T18:09:00Z,00000200,01000000,0003.29,0002.22,0000.96,0000.56,0000.73,0000.21,0000.55,-000.24,0000.26,17.0,23.9,,00.0,0669.6,30.9
2021-10-13T18:10:00Z,00000200,01000000,0003.62,0001.96,0001.19,0000.41,0000.32,0000.31,0000.51,0000.55,0000.22,17.0,23.9,,00.0,0669.6,30.9
2021-10-13T18:11:00Z,00000200,01000000,0003.48,0002.36,0001.01,0000.88,0000.42,0000.23,0000.39,0000.37,0000.40,16.9,23.8,,00.0,0669.6,30.9
2021-10-13T18:12:00Z,00000200,01000000,0002.64,0002.14,0001.57,0000.71,0000.42,0000.07,0000.54,0000.34,0000.39,16.8,23.8,,00.0,0669.6,30.9
2021-10-13T18:13:00Z,00000200,01000000,0004.63,0002.56,0001.24,0000.71,0000.57,0000.19,0000.71,0000.92,0000.18,16.9,23.8,,00.0,0669.6,30.9
2021-10-13T18:14:00Z,00000200,01000000,0002.70,0002.64,0001.20,0000.38,0000.33,0000.38,0000.41,0000.51,0000.52,16.9,23.8,,00.0,0669.6,30.9
2021-10-13T18:15:00Z,00000200,01000000,0003.10,0002.31,0000.78,0000.37,0000.28,0000.14,0000.35,0000.53,0000.27,16.9,23.8,,00.0,0669.6,30.9
2021-10-13T18:16:00Z,00000200,01000000,0003.37,0002.24,0001.30,0001.00,0000.39,0000.40,0000.61,0000.50,0000.45,17.0,23.8,,00.0,0669.6,30.9
2021-10-13T18:17:00Z,00000200,01000000,0002.39,0001.86,0001.10,0000.74,0000.46,0000.22,0000.65,0000.28,0000.44,17.0,23.8,,00.0,0669.6,30.9
2021-10-13T18:18:00Z,00000200,01000000,0002.08,0001.54,0000.86,0000.56,0000.43,0000.27,0000.75,0000.93,0000.22,17.1,23.9,,00.0,0669.5,30.9
2021-10-13T18:19:00Z,00000200,01000000,0002.70,0001.59,0000.72,-000.33,0000.54,0000.52,0000.27,0000.12,0000.31,17.1,23.9,,00.0,0669.5,30.9
2021-10-13T18:20:00Z,00000200,01000000,0002.75,0001.68,0000.70,0000.59,0000.39,0000.31,0000.78,0000.33,0000.31,17.1,23.9,,00.0,0669.5,31.0
2021-10-13T18:21:00Z,00000200,01000000,0001.71,0001.81,0000.79,0000.26,0000.19,0000.44,0000.37,0000.71,0000.75,17.2,23.9,,00.0,0669.5,30.9
2021-10-13T18:22:00Z,00000200,01000000,0001.89,0001.36,0000.85,-000.00,0000.22,-000.07,0000.63,0000.42,-000.03,17.1,23.9,,00.0,0669.4,30.9
2021-10-13T18:23:00Z,00000200,01000000,0001.44,0001.49,0000.93,0000.50,0000.21,0000.32,0000.13,0000.07,0000.02,17.0,23.9,,00.0,0669.4,30.9
2021-10-13T18:24:00Z,00000200,01000000,0002.28,0001.71,0000.85,0000.06,0000.25,0000.95,0000.06,0000.30,-000.01,17.0,23.8,,00.0,0669.4,30.9
2021-10-13T18:25:00Z,00000200,01000000,0002.28,0001.57,0001.17,0000.39,0000.24,0000.22,0000.28,-000.08,0000.25,16.9,23.8,,00.0,0669.4,30.9
2021-10-13T18:26:00Z,00000200,01000000,0002.67,0001.52,0001.34,0000.80,0000.50,0000.51,0000.23,-000.10,0000.10,16.8,23.7,,00.0,0669.3,30.9
2021-10-13T18:27:00Z,00000200,01000000,0002.80,0001.54,0000.63,0000.81,0000.79,0000.17,0000.21,0000.53,0000.17,16.8,23.7,,00.0,0669.3,30.9
2021-10-13T18:28:00Z,00000200,01000000,0002.69,0001.73,0000.76,0000.44,0000.64,0000.12,0000.64,0000.56,0000.05,16.8,23.7,,00.0,0669.3,30.9
2021-10-13T18:29:00Z,00000200,01000000,0002.27,0001.51,0000.68,0000.45,0000.39,0000.36,0000.66,0000.63,0000.74,16.8,23.7,,00.0,0669.3,30.9
2021-10-13T18:30:00Z,00000200,01000000,0001.69,0001.08,0000.89,0000.20,0000.31,0000.11,0000.43,0000.38,0000.56,16.9,23.7,,00.0,0669.2,30.9
2021-10-13T18:31:00Z,00000200,01000000,0001.94,0001.60,0000.54,0000.67,0000.27,0000.41,0000.49,0000.55,0000.13,16.9,23.7,,00.0,0669.2,30.9
2021-10-13T18:32:00Z,00000200,01000000,0002.18,0001.72,0000.60,-000.03,0000.16,0000.41,0000.57,0000.34,0000.29,16.9,23.7,,00.0,0669.2,30.9
2021-10-13T18:33:00Z,00000200,01000000,0002.82,0001.98,0001.43,0000.63,0000.32,0000.53,-000.03,0000.01,-000.08,17.0,23.7,,00.0,0669.2,30.9
2021-10-13T18:34:00Z,00000200,01000000,0003.46,0001.84,0000.95,0000.62,0000.55,0001.14,0000.55,0000.53,0000.05,17.1,23.8,,00.0,0669.1,30.9
2021-10-13T18:35:00Z,00000200,01000000,0003.33,0002.35,0000.85,0001.23,0000.45,0000.57,0000.04,0000.06,0000.47,17.1,23.8,,00.0,0669.1,31.0
2021-10-13T18:36:00Z,00000200,01000000,0003.14,0001.72,0001.32,0000.76,0000.56,0000.27,0000.64,0000.18,0000.04,17.1,23.8,,00.0,0669.2,31.0
2021-10-13T18:37:00Z,00000200,01000000,0003.60,0002.14,0001.24,0000.39,0000.33,0000.54,0000.15,0000.69,0000.47,17.2,23.8,,00.0,0669.1,30.9
2021-10-13T18:38:00Z,00000200,01000000,0002.61,0002.18,0001.17,0000.44,0000.52,0000.49,0000.29,0000.07,-000.31,17.1,23.8,,00.0,0669.1,30.9
2021-10-13T18:39:00Z,00000200,01000000,0003.04,0001.98,0000.80,0000.25,0000.43,0000.33,0000.53,0000.08,0000.62,17.0,23.8,,00.0,0669.1,30.9
2021-10-13T18:40:00Z,00000200,01000000,0002.45,0002.41,0001.20,0000.29,0000.17,0000.33,0000.48,0000.65,0000.39,16.9,23.7,,00.0,0669.1,30.9
2021-10-13T18:41:00Z,00000200,01000000,0002.15,0001.15,0000.61,-000.48,0000.18,0000.37,0001.08,0000.86,0000.54,16.9,23.7,,00.0,0669.1,30.9
2021-10-13T18:42:00Z,00000200,01000000,0001.54,0001.12,0000.76,0000.17,0000.07,0000.39,0000.80,0001.15,0000.54,16.8,23.7,,00.0,0669.1,30.9
2021-10-13T18:43:00Z,00000200,01000000,0003.35,0001.46,0000.86,0000.60,0000.59,0000.25,0000.13,-000.17,-000.08,16.8,23.6,,00.0,0669.1,30.9
2021-10-13T18:44:00Z,00000200,01000000,0003.07,0002.30,0001.00,0000.23,0000.43,0000.39,0000.16,0000.14,0000.51,16.9,23.6,,00.0,0669.1,30.9
2021-10-13T18:45:00Z,00000200,01000000,0003.02,0002.23,0001.13,0000.38,0000.57,0000.47,0000.43,0000.42,0000.00,16.9,23.6,,00.0,0669.1,30.9
2021-10-13T18:46:00Z,00000200,01000000,0002.59,0001.67,0001.02,-000.12,0000.26,0000.14,0000.69,0000.74,0000.40,16.9,23.7,,00.0,0669.1,30.9
2021-10-13T18:47:00Z,00000200,01000000,0003.01,0001.96,0000.58,0000.58,0000.10,0000.28,0000.75,0000.69,0000.30,17.0,23.7,,00.0,0669.1,30.9
2021-10-13T18:48:00Z,00000200,01000000,0002.77,0001.77,0000.87,0000.70,0000.40,0000.16,0000.27,0000.05,0000.33,17.0,23.7,,00.0,0669.1,30.9
2021-10-13T18:49:00Z,00000200,01000000,0003.51,0002.03,0001.39,0000.89,0000.46,0000.48,0000.42,0000.13,0000.34,17.1,23.7,,00.0,0669.1,30.9
2021-10-13T18:50:00Z,00000200,01000000,0003.13,0001.94,0001.23,0000.41,0000.37,0000.24,0000.51,0000.53,0000.32,17.1,23.8,,00.0,0669.1,31.0
2021-10-13T18:51:00Z,00000200,01000000,0002.86,0002.23,0001.11,0000.84,0000.76,0000.58,0000.18,0000.21,0000.40,17.1,23.8,,00.0,0669.1,30.9
2021-10-13T18:52:00Z,00000200,01000000,0003.63,0002.51,0001.45,0000.35,0000.39,0000.48,0000.42,0000.42,0000.04,17.1,23.8,,00.0,0669.0,30.9
2021-10-13T18:53:00Z,00000200,01000000,0002.75,0002.50,0000.89,0000.58,0000.29,0000.26,0000.53,0000.37,0000.02,17.0,23.8,,00.0,0669.0,30.9
2021-10-13T18:54:00Z,00000200,01000000,0002.77,0002.01,0001.37,0000.35,0000.28,0000.43,0000.32,0000.44,0000.45,16.9,23.7,,00.0,0669.0,30.9
2021-10-13T18:55:00Z,00000200,01000000,0002.78,0001.87,0001.32,0000.56,0000.58,0000.31,0000.79,0000.57,0000.29,16.9,23.6,,00.0,0669.0,30.9
2021-10-13T18:56:00Z,00000200,01000000,0003.37,0002.25,0001.08,0000.78,0000.24,0000.23,0000.73,0000.64,0000.59,16.8,23.6,,00.0,0669.0,30.9
2021-10-13T18:57:00Z,00000200,41000000,,,,,,,0000.28,0000.09,-000.03,16.8,23.6,,00.0,0669.0,30.8
2021-10-13T18:58:00Z,00000200,61000000,,,,,,,0000.13,0000.34,0000.28,16.4,23.7,,00.0,0668.0,30.9
2021-10-13T18:59:00Z,00000200,21000000,,,,,,,0000.17,-000.05,-000.08,16.4,23.8,,00.0,0668.0,30.9
